This is the latest recevied weather packets stored in our database for station/object S51UL-6. If no packets are shown the sender has not sent any weather packets the latest 10 day(s).
| Time | Temp. | Humidity | Pressure | Rain* | Wind** | Luminosity | Snow |
|---|---|---|---|---|---|---|---|
| 1778055797 | 21.11° C | 55% | 1010.8 hPa | 0 mm | - | - | - |
| 1778055497 | 20.56° C | 54% | 1010.9 hPa | 0 mm | - | - | - |
| 1778054897 | 21.11° C | 53% | 1010.7 hPa | 0 mm | - | - | - |
| 1778054597 | 21.11° C | 53% | 1010.7 hPa | 0 mm | - | - | - |
| 1778054297 | 21.67° C | 57% | 1010.5 hPa | 0 mm | - | - | - |
| 1778053999 | 21.67° C | 58% | 1010.7 hPa | 0 mm | - | - | - |
| 1778053698 | 21.11° C | 58% | 1010.6 hPa | 0 mm | - | - | - |
| 1778053097 | 20.56° C | 64% | 1010.6 hPa | 0 mm | - | - | - |
| 1778052799 | 20° C | 64% | 1010.6 hPa | 0 mm | - | - | - |
| 1778052498 | 19.44° C | 66% | 1010.5 hPa | 0 mm | - | - | - |
| 1778051598 | 18.33° C | 69% | 1010.5 hPa | 0 mm | - | - | - |
| 1778051298 | 18.33° C | 72% | 1010.5 hPa | 0 mm | - | - | - |
| 1778050998 | 17.78° C | 73% | 1010.4 hPa | 0 mm | - | - | - |
| 1778050698 | 17.78° C | 73% | 1010.4 hPa | 0 mm | - | - | - |
| 1778050398 | 17.22° C | 77% | 1010.6 hPa | 0 mm | - | - | - |
| 1778050098 | 16.67° C | 79% | 1010.6 hPa | 0 mm | - | - | - |
| 1778049498 | 15.56° C | 84% | 1010.9 hPa | 0 mm | - | - | - |
| 1778048899 | 14.44° C | 85% | 1010.9 hPa | 0 mm | - | - | - |
| 1778048299 | 13.33° C | 87% | 1011 hPa | 0 mm | - | - | - |
| 1778048000 | 13.33° C | 88% | 1011 hPa | 0 mm | - | - | - |
| 1778047698 | 12.22° C | 88% | 1011.1 hPa | 0 mm | - | - | - |
| 1778047400 | 11.67° C | 88% | 1011 hPa | 0 mm | - | - | - |
| 1778047099 | 11.67° C | 88% | 1010.9 hPa | 0 mm | - | - | - |
| 1778046199 | 10.56° C | 88% | 1010.8 hPa | 0 mm | - | - | - |
| 1778045992 | 10° C | 88% | 1010.7 hPa | 0 mm | - | - | - |
* Rain latest hour (hover to see other rain measurements)
** Current wind speed in m/s (hover to see current wind gust speed)